Regional Weather Roundup
Issued by NWS Sterling, VA

Home | Current Version | Previous Version | Text Only | Print | Product List | Glossary On
Versions: 1 2 3 4 5 6 7 8 9 10 11 12 13 14 15 16 17 18 19 20 21 22 23 24 25 26 27 28 29 30 31 32 33 34 35 36 37 38 39 40 41 42 43 44 45 46 47 48 49 50
480
ASUS41 KLWX 311910
RWRLWX

REGIONAL WEATHER ROUNDUP
NATIONAL WEATHER SERVICE BALTIMORE MD/WASHINGTON DC
300 PM EDT TUE MAY 31 2016

Note: "FAIR" indicates few or no clouds below 12,000 feet
with no significant weather and/or obstructions to visibility.
 TC=TEMPERATURE CELSIUS

 * =Non NWS site. Station does not report precipitation (e.g. rain,
    snow, etc.), thunder, or fog.

DCZ001-MDZ009-015-VAZ040>042-051-053>054-312000-
WASHINGTON METRO

CITY           SKY/WX    TMP DP  RH WIND       PRES   REMARKS
WASHINGTON NAT PTSUNNY   85  65  51 NE5       29.95F
DULLES         PTSUNNY   85  59  41 VRB6      29.96F
ANDREWS AFB    MOSUNNY   82  67  59 NE5       29.95F
FT BELVOIR     FAIR      82  67  62 CALM      29.95F
QUANTICO       FAIR      81  71  71 S7        29.96F
LEESBURG*      FAIR      88  59  37 CALM      29.98S
MANASSAS*      MOSUNNY   84  63  48 CALM      29.96F

$$

MDZ006>007-011-014-312000-
BALTIMORE METRO

CITY           SKY/WX    TMP DP  RH WIND       PRES   REMARKS
BWI AIRPORT    PTSUNNY   83  63  50 SE6       29.95F
MD SCIENCE CTR   N/A     83  66  56 MISG      29.95F
MARTIN STATE   MOSUNNY   84  70  61 SE7       29.97F
ANNAPOLIS      SUNNY     77  69  76 SE9       29.96F
FORT MEADE*    MOSUNNY   81  63  54 CALM      29.98F

$$

MDZ012-015-019>023-312000-
MARYLAND EASTERN SHORE

CITY           SKY/WX    TMP DP  RH WIND       PRES   REMARKS
OCEAN CITY     SUNNY     74  68  81 VRB6      29.98S
SALISBURY      PTSUNNY   83  67  58 NE5       29.95F
CAMBRIDGE*     SUNNY     79  68  69 N3        29.96F
EASTON*        PTSUNNY   82  73  74 NW7       30.00F

$$

MDZ017>025-312000-
SOUTHERN MARYLAND

CITY           SKY/WX    TMP DP  RH WIND       PRES   REMARKS
PATUXENT RIVER MOSUNNY   79  67  66 E7        29.96F
ST INIGOES     PTSUNNY   80  70  71 SE6       29.96F
LEONARDTOWN*   MOSUNNY   79  63  57 E5        29.99S

$$

MDZ003>005-312000-
NORTH CENTRAL MARYLAND

CITY           SKY/WX    TMP DP  RH WIND       PRES   REMARKS
FREDERICK*     MOSUNNY   86  57  37 CALM      29.99F
HAGERSTOWN APT MOSUNNY   85  55  35 W7        29.97F
WESTMINSTER*   SUNNY     84  75  74 CALM      29.99F HX  92

$$

MDZ501>502-312000-
WESTERN MARYLAND

CITY           SKY/WX    TMP DP  RH WIND       PRES   REMARKS
OAKLAND*       CLOUDY    73  50  43 CALM      30.09F
CUMBERLAND*    CLOUDY    84  61  45 S6        30.02F

$$

VAZ025>031-312000-
SHENANDOAH VALLEY

CITY           SKY/WX    TMP DP  RH WIND       PRES   REMARKS
WINCHESTER*    FAIR      84  55  37 E3        29.99F
FRONT ROYAL*   FAIR      82  63  51 CALM      29.99S
LURAY*         FAIR      82  59  44 NE5       29.99F
NEW MARKET*    FAIR     N/A N/A N/A CALM      29.97F
STAUNTON*      FAIR      82  58  43 E3        30.02F
WAYNESBORO*    FAIR      82  54  37 N7        30.01F

$$

WVZ021-048>050-054>055-312000-
EASTERN WEST VIRGINIA PANHANDLE

CITY           SKY/WX    TMP DP  RH WIND       PRES   REMARKS
MARTINSBURG    FAIR      85  54  34 VRB3      29.97F
PETERSBURG*    FAIR      85  57  37 SE7       30.00F

$$

VAZ036>039-050-312000-
CENTRAL FOOTHILLS

CITY           SKY/WX    TMP DP  RH WIND       PRES   REMARKS
CHARLOTTESVILL FAIR      85  64  49 VRB6      29.97F
CULPEPER*      FAIR      87  64  46 NW5       29.97F
ORANGE*        FAIR      86  64  48 NE6       29.98F
GORDONSVILLE*  FAIR      84  67  57 CALM      29.96F
WARRENTON*     FAIR      88  54  31 N6        29.97S

$$

VAZ055>057-312000-
NORTH AND CENTRAL PIEDMONT

CITY           SKY/WX    TMP DP  RH WIND       PRES   REMARKS
FREDERICKSBRG* FAIR      85  66  54 CALM      29.95F
STAFFORD*      FAIR      84  65  52 NE5       30.00F

$$

NCZ024-NYZ072-PAZ021-071-VAZ022-071-312000-
OTHER REGIONAL OBSERVATIONS

CITY           SKY/WX    TMP DP  RH WIND       PRES   REMARKS
NEW YORK CITY  MOSUNNY   83  64  52 VRB3      29.95F
PHILADELPHIA   MOSUNNY   87  55  33 VRB6      29.94S
PITTSBURGH     PTSUNNY   87  52  29 VRB6      29.99F
ROANOKE        PTSUNNY   83  64  52 E6        30.00F
RICHMOND       PTSUNNY   83  67  58 NE7       29.96F
RALEIGH        PTSUNNY   82  68  62 NE10      29.94F

$$

ANZ530>537-312000-
MARINE OBSERVATIONS

STATION/POSITION TIME  TEMP    WIND        PRES
                       AIR SEA DIR/SP/G
                 (UTC) (F)     (DEG/KT/KT) (MB)
THOMAS PT LIGHT  1900   77 70  170/  4/  4 1015.7F
BALT KEY BRIDGE  1800   77     140/  8/  9 1014.7F
COVE POINT       1800   73     110/  1/  2 1015.7F
LEWISETTA        1800   73 74  120/  7/  7 1014.9F
SOLOMONS ISLAND  1800   73 67   90/  7/  7   N/A
PINEY POINT      1800          180/  7/  8   N/A

$$





USA.gov is the U.S. government's official web portal to all federal, state and local government web resources and services.